Alliance, NE

7:10 AM MDT on August 23, 2017 (GMT -0600)
Alliance Municipal

Weather History for KAIA - December, 2012

Change the Weather History Date:

Friday, December 7, 2012

  Actual Average Record
Temperature  
Mean Temperature 27 °F 24 °F  
Max Temperature 42 °F 40 °F 64 °F (2003)
Min Temperature 11 °F 9 °F -23 °F (2005)
Degree Days  
Heating Degree Days 38 41  
Month to date heating degree days 181 278  
Since 1 July heating degree days 1744 2077  
Cooling Degree Days 0 0  
Month to date cooling degree days 0 0  
Year to date cooling degree days 959 564  
Moisture  
Dew Point 18 °F    
Average Humidity 64    
Maximum Humidity 84    
Minimum Humidity 44    
Precipitation  
Precipitation 0.00 in 0.02 in 0.15 in (1994)
Month to date precipitation T 0.13  
Year to date precipitation 6.77 15.47  
Sea Level Pressure  
Sea Level Pressure 29.91 in    
Wind  
Wind Speed 12 mph (WNW)    
Max Wind Speed 23 mph    
Max Gust Speed 29 mph    
Visibility 10 miles    
Events      
T = Trace of Precipitation, MM = Missing Value Source: NWS Daily Summary

Daily Weather History Graph

Daily Weather History Graph

Search for Another Location

Airport or City:

Trip Planner

Search our weather history database for the weather conditions in past years. The results will help you decide how hot, cold, wet, or windy it might be!

Date:

Astronomy

Dec. 07, 2012 Rise Set
Actual Time 7:06 AM MST 4:19 PM MST
Civil Twilight 6:34 AM MST 4:51 PM MST
Nautical Twilight 5:59 AM MST 5:26 PM MST
Astronomical Twilight 5:25 AM MST 5:59 PM MST
Moon 12:22 AM MST (12/7) 12:22 PM MST (12/7)
Length of Visible Light 10h 16m
Length of Day
9h 13m
Last Quarter, 38% of the Moon is Illuminated
Dec 7
Last Quarter
Dec 13
New
Dec 19
First Quarter
Dec 28
Full
Jan 4
Last Quarter

Hourly Weather History & Observations

Time (MST) Temp. Windchill Dew Point Humidity Pressure Visibility Wind Dir Wind Speed Gust Speed Precip Events Conditions
12:53 AM 30.9 °F 18.7 °F 21.9 °F 69% 29.86 in 10.0 mi South 19.6 mph 26.5 mph N/A   Overcast
1:53 AM 30.9 °F 18.7 °F 21.0 °F 67% 29.84 in 10.0 mi South 19.6 mph - N/A   Mostly Cloudy
2:53 AM 30.9 °F 19.4 °F 19.0 °F 61% 29.81 in 10.0 mi South 17.3 mph - N/A   Mostly Cloudy
3:53 AM 32.0 °F 20.1 °F 17.1 °F 54% 29.80 in 10.0 mi South 19.6 mph - N/A   Clear
4:53 AM 32.0 °F 20.1 °F 16.0 °F 52% 29.81 in 10.0 mi SSW 19.6 mph - N/A   Clear
5:53 AM 30.9 °F 22.2 °F 16.0 °F 54% 29.85 in 10.0 mi SW 10.4 mph - N/A   Clear
6:53 AM 30.0 °F 22.4 °F 17.1 °F 59% 29.88 in 10.0 mi West 8.1 mph - N/A   Mostly Cloudy
7:53 AM 30.9 °F 19.4 °F 23.0 °F 72% 29.92 in 10.0 mi NNW 17.3 mph - N/A   Clear
8:53 AM 34.0 °F 23.0 °F 21.0 °F 59% 29.93 in 10.0 mi NNW 18.4 mph - N/A   Overcast
9:53 AM 37.0 °F 28.5 °F 25.0 °F 62% 29.93 in 10.0 mi NNW 13.8 mph - N/A   Overcast
10:53 AM 39.9 °F 30.8 °F 24.1 °F 53% 29.92 in 10.0 mi NW 18.4 mph - N/A   Partly Cloudy
11:53 AM 41.0 °F 32.2 °F 21.9 °F 47% 29.89 in 10.0 mi NNW 18.4 mph - N/A   Clear
12:53 PM 41.0 °F 33.1 °F 21.0 °F 45% 29.89 in 10.0 mi NNW 15.0 mph 24.2 mph N/A   Scattered Clouds
1:53 PM 39.0 °F 31.4 °F 19.9 °F 46% 29.91 in 10.0 mi NNW 12.7 mph - N/A   Clear
2:53 PM 37.9 °F 30.0 °F 21.0 °F 51% 29.92 in 10.0 mi NNW 12.7 mph - N/A   Mostly Cloudy
3:53 PM 35.1 °F 29.3 °F 19.9 °F 54% 29.94 in 10.0 mi North 6.9 mph - N/A   Scattered Clouds
4:53 PM 28.9 °F 21.1 °F 19.0 °F 67% 29.95 in 10.0 mi NNE 8.1 mph - N/A   Partly Cloudy
5:53 PM 28.4 °F 19.7 °F 17.6 °F 64% 29.90 in 10.0 mi North 9.2 mph - N/A   Partly Cloudy
6:53 PM 19.4 °F 14.3 °F 15.8 °F 86% 29.92 in 10.0 mi SW 3.5 mph - N/A   Clear
7:53 PM 15.1 °F 9.4 °F 10.9 °F 84% 30.04 in 10.0 mi SSW 3.5 mph - N/A   Clear
8:53 PM 16.0 °F - 10.9 °F 81% 30.03 in 10.0 mi Calm Calm - N/A   Clear
9:53 PM 15.1 °F 9.4 °F 10.9 °F 84% 30.02 in 10.0 mi West 3.5 mph - N/A   Clear
10:53 PM 14.0 °F - 8.1 °F 77% 30.00 in 10.0 mi Calm Calm - N/A   Clear
11:53 PM 18.0 °F - 12.9 °F 81% 29.95 in 10.0 mi Calm Calm - N/A   Clear